Year,Month,Day,Hour,Minute,Value (Times are PST for windspeed in km/hr)
2010,03,12,00,00,0.00
2010,03,12,00,01,0.00
2010,03,12,00,02,0.00
2010,03,12,00,03,0.00
2010,03,12,00,04,0.00
2010,03,12,00,05,0.00
2010,03,12,00,06,0.00
2010,03,12,00,07,0.00
2010,03,12,00,08,0.00
2010,03,12,00,09,0.00
2010,03,12,00,10,0.00
2010,03,12,00,11,0.00
2010,03,12,00,12,0.00
2010,03,12,00,13,0.00
2010,03,12,00,14,0.00
2010,03,12,00,15,0.10
2010,03,12,00,16,1.50
2010,03,12,00,17,0.00
2010,03,12,00,18,0.00
2010,03,12,00,19,0.00
2010,03,12,00,20,0.00
2010,03,12,00,21,0.00
2010,03,12,00,22,0.00
2010,03,12,00,23,0.00
2010,03,12,00,24,0.00
2010,03,12,00,25,0.00
2010,03,12,00,26,0.00
2010,03,12,00,27,0.00
2010,03,12,00,28,0.00
2010,03,12,00,29,0.00
2010,03,12,00,30,0.00
2010,03,12,00,31,0.80
2010,03,12,00,32,0.90
2010,03,12,00,33,0.80
2010,03,12,00,34,0.20
2010,03,12,00,35,0.10
2010,03,12,00,36,0.00
2010,03,12,00,37,0.50
2010,03,12,00,38,0.30
2010,03,12,00,39,0.00
2010,03,12,00,40,0.00
2010,03,12,00,41,0.00
2010,03,12,00,42,0.00
2010,03,12,00,43,0.00
2010,03,12,00,44,0.00
2010,03,12,00,45,0.00
2010,03,12,00,46,0.00
2010,03,12,00,47,0.00
2010,03,12,00,48,0.10
2010,03,12,00,49,1.10
2010,03,12,00,50,0.90
2010,03,12,00,51,1.00
2010,03,12,00,52,1.20
2010,03,12,00,53,0.30
2010,03,12,00,54,0.60
2010,03,12,00,55,0.30
2010,03,12,00,56,0.00
2010,03,12,00,57,0.30
2010,03,12,00,58,0.20
2010,03,12,00,59,0.00
2010,03,12,01,00,0.10
2010,03,12,01,01,0.10
2010,03,12,01,02,0.60
2010,03,12,01,03,0.20
2010,03,12,01,04,0.40
2010,03,12,01,05,1.10
2010,03,12,01,06,0.20
2010,03,12,01,07,0.00
2010,03,12,01,08,0.00
2010,03,12,01,09,0.00
2010,03,12,01,10,0.00
2010,03,12,01,11,0.00
2010,03,12,01,12,0.10
2010,03,12,01,13,0.10
2010,03,12,01,14,0.00
2010,03,12,01,15,0.10
2010,03,12,01,16,0.00
2010,03,12,01,17,0.00
2010,03,12,01,18,0.10
2010,03,12,01,19,0.60
2010,03,12,01,20,0.80
2010,03,12,01,21,0.80
2010,03,12,01,22,0.40
2010,03,12,01,23,0.00
2010,03,12,01,24,0.00
2010,03,12,01,25,0.00
2010,03,12,01,26,0.00
2010,03,12,01,27,0.00
2010,03,12,01,28,0.00
2010,03,12,01,29,0.40
2010,03,12,01,30,1.90
2010,03,12,01,31,0.20
2010,03,12,01,32,0.00
2010,03,12,01,33,0.00
2010,03,12,01,34,0.90
2010,03,12,01,35,2.70
2010,03,12,01,36,0.60
2010,03,12,01,37,0.00
2010,03,12,01,38,0.30
2010,03,12,01,39,1.30
2010,03,12,01,40,0.70
2010,03,12,01,41,0.40
2010,03,12,01,42,0.10
2010,03,12,01,43,0.60
2010,03,12,01,44,0.90
2010,03,12,01,45,0.70
2010,03,12,01,46,0.40
2010,03,12,01,47,0.40
2010,03,12,01,48,0.90
2010,03,12,01,49,0.30
2010,03,12,01,50,0.20
2010,03,12,01,51,0.00
2010,03,12,01,52,0.00
2010,03,12,01,53,0.00
2010,03,12,01,54,0.10
2010,03,12,01,55,0.60
2010,03,12,01,56,0.10
2010,03,12,01,57,0.00
2010,03,12,01,58,0.00
2010,03,12,01,59,0.70
2010,03,12,02,00,0.00
2010,03,12,02,01,0.00
2010,03,12,02,02,0.00
2010,03,12,02,03,0.00
2010,03,12,02,04,0.00
2010,03,12,02,05,0.00
2010,03,12,02,06,0.00
2010,03,12,02,07,0.00
2010,03,12,02,08,0.00
2010,03,12,02,09,0.00
2010,03,12,02,10,0.00
2010,03,12,02,11,0.00
2010,03,12,02,12,0.00
2010,03,12,02,13,0.00
2010,03,12,02,14,0.00
2010,03,12,02,15,0.00
2010,03,12,02,16,0.00
2010,03,12,02,17,0.00
2010,03,12,02,18,0.00
2010,03,12,02,19,0.00
2010,03,12,02,20,0.00
2010,03,12,02,21,0.00
2010,03,12,02,22,0.00
2010,03,12,02,23,0.00
2010,03,12,02,24,0.00
2010,03,12,02,25,0.00
2010,03,12,02,26,0.00
2010,03,12,02,27,0.00
2010,03,12,02,28,0.00
2010,03,12,02,29,0.00
2010,03,12,02,30,0.00
2010,03,12,02,31,0.00
2010,03,12,02,32,0.00
2010,03,12,02,33,0.00
2010,03,12,02,34,0.00
2010,03,12,02,35,0.00
2010,03,12,02,36,0.00
2010,03,12,02,37,0.00
2010,03,12,02,38,0.00
2010,03,12,02,39,0.00
2010,03,12,02,40,0.00
2010,03,12,02,41,0.00
2010,03,12,02,42,0.00
2010,03,12,02,43,0.10
2010,03,12,02,44,0.00
2010,03,12,02,45,0.00
2010,03,12,02,46,0.00
2010,03,12,02,47,0.00
2010,03,12,02,48,1.00
2010,03,12,02,49,1.40
2010,03,12,02,50,1.40
2010,03,12,02,51,1.50
2010,03,12,02,52,0.60
2010,03,12,02,53,0.00
2010,03,12,02,54,0.00
2010,03,12,02,55,0.10
2010,03,12,02,56,0.00
2010,03,12,02,57,0.00
2010,03,12,02,58,0.00
2010,03,12,02,59,0.00
2010,03,12,03,00,0.00
2010,03,12,03,01,0.10
2010,03,12,03,02,1.60
2010,03,12,03,03,0.60
2010,03,12,03,04,1.20
2010,03,12,03,05,1.50
2010,03,12,03,06,1.80
2010,03,12,03,07,0.30
2010,03,12,03,08,0.00
2010,03,12,03,09,1.40
2010,03,12,03,10,0.20
2010,03,12,03,11,0.00
2010,03,12,03,12,0.00
2010,03,12,03,13,0.00
2010,03,12,03,14,1.00
2010,03,12,03,15,2.20
2010,03,12,03,16,0.70
2010,03,12,03,17,0.80
2010,03,12,03,18,1.60
2010,03,12,03,19,1.90
2010,03,12,03,20,0.80
2010,03,12,03,21,0.20
2010,03,12,03,22,0.10
2010,03,12,03,23,0.00
2010,03,12,03,24,0.00
2010,03,12,03,25,0.20
2010,03,12,03,26,0.10
2010,03,12,03,27,0.00
2010,03,12,03,28,0.10
2010,03,12,03,29,1.10
2010,03,12,03,30,0.30
2010,03,12,03,31,0.50
2010,03,12,03,32,0.70
2010,03,12,03,33,0.00
2010,03,12,03,34,0.10
2010,03,12,03,35,0.50
2010,03,12,03,36,1.20
2010,03,12,03,37,1.10
2010,03,12,03,38,0.80
2010,03,12,03,39,0.60
2010,03,12,03,40,0.00
2010,03,12,03,41,0.00
2010,03,12,03,42,0.00
2010,03,12,03,43,0.00
2010,03,12,03,44,0.00
2010,03,12,03,45,0.00
2010,03,12,03,46,0.00
2010,03,12,03,47,0.00
2010,03,12,03,48,0.00
2010,03,12,03,49,0.00
2010,03,12,03,50,0.00
2010,03,12,03,51,0.00
2010,03,12,03,52,0.00
2010,03,12,03,53,0.00
2010,03,12,03,54,0.00
2010,03,12,03,55,0.00
2010,03,12,03,56,0.00
2010,03,12,03,57,0.00
2010,03,12,03,58,0.00
2010,03,12,03,59,0.00
2010,03,12,04,00,0.00
2010,03,12,04,01,0.00
2010,03,12,04,02,0.00
2010,03,12,04,03,0.00
2010,03,12,04,04,0.00
2010,03,12,04,05,0.00
2010,03,12,04,06,0.00
2010,03,12,04,07,0.00
2010,03,12,04,08,0.00
2010,03,12,04,09,0.00
2010,03,12,04,10,0.10
2010,03,12,04,11,0.00
2010,03,12,04,12,1.50
2010,03,12,04,13,2.40
2010,03,12,04,14,1.20
2010,03,12,04,15,0.30
2010,03,12,04,16,0.10
2010,03,12,04,17,0.00
2010,03,12,04,18,0.00
2010,03,12,04,19,0.00
2010,03,12,04,20,0.10
2010,03,12,04,21,0.00
2010,03,12,04,22,0.00
2010,03,12,04,23,0.00
2010,03,12,04,24,0.00
2010,03,12,04,25,0.00
2010,03,12,04,26,0.00
2010,03,12,04,27,0.00
2010,03,12,04,28,0.00
2010,03,12,04,29,0.00
2010,03,12,04,30,0.00
2010,03,12,04,31,0.00
2010,03,12,04,32,0.00
2010,03,12,04,33,0.00
2010,03,12,04,34,0.00
2010,03,12,04,35,0.00
2010,03,12,04,36,0.00
2010,03,12,04,37,0.00
2010,03,12,04,38,0.00
2010,03,12,04,39,0.00
2010,03,12,04,40,0.00
2010,03,12,04,41,0.00
2010,03,12,04,42,0.00
2010,03,12,04,43,0.00
2010,03,12,04,44,0.00
2010,03,12,04,45,0.00
2010,03,12,04,46,0.00
2010,03,12,04,47,0.00
2010,03,12,04,48,0.00
2010,03,12,04,49,0.00
2010,03,12,04,50,0.00
2010,03,12,04,51,0.00
2010,03,12,04,52,0.00
2010,03,12,04,53,0.00
2010,03,12,04,54,0.00
2010,03,12,04,55,0.00
2010,03,12,04,56,0.50
2010,03,12,04,57,1.40
2010,03,12,04,58,1.40
2010,03,12,04,59,1.80
2010,03,12,05,00,1.00
2010,03,12,05,01,3.40
2010,03,12,05,02,1.40
2010,03,12,05,03,2.20
2010,03,12,05,04,3.50
2010,03,12,05,05,4.50
2010,03,12,05,06,3.80
2010,03,12,05,07,4.70
2010,03,12,05,08,4.30
2010,03,12,05,09,3.30
2010,03,12,05,10,3.00
2010,03,12,05,11,2.50
2010,03,12,05,12,4.10
2010,03,12,05,13,2.00
2010,03,12,05,14,0.60
2010,03,12,05,15,0.00
2010,03,12,05,16,0.00
2010,03,12,05,17,1.30
2010,03,12,05,18,2.00
2010,03,12,05,19,1.50
2010,03,12,05,20,0.30
2010,03,12,05,21,1.20
2010,03,12,05,22,2.50
2010,03,12,05,23,2.40
2010,03,12,05,24,1.50
2010,03,12,05,25,0.70
2010,03,12,05,26,2.10
2010,03,12,05,27,1.70
2010,03,12,05,28,3.20
2010,03,12,05,29,3.60
2010,03,12,05,30,2.20
2010,03,12,05,31,3.20
2010,03,12,05,32,3.00
2010,03,12,05,33,2.00
2010,03,12,05,34,0.80
2010,03,12,05,35,2.00
2010,03,12,05,36,0.10
2010,03,12,05,37,0.00
2010,03,12,05,38,0.00
2010,03,12,05,39,0.00
2010,03,12,05,40,0.00
2010,03,12,05,41,0.00
2010,03,12,05,42,0.00
2010,03,12,05,43,0.10
2010,03,12,05,44,0.00
2010,03,12,05,45,0.20
2010,03,12,05,46,0.50
2010,03,12,05,47,0.40
2010,03,12,05,48,0.10
2010,03,12,05,49,0.00
2010,03,12,05,50,0.00
2010,03,12,05,51,0.00
2010,03,12,05,52,0.10
2010,03,12,05,53,0.10
2010,03,12,05,54,0.00
2010,03,12,05,55,2.00
2010,03,12,05,56,2.30
2010,03,12,05,57,0.50
2010,03,12,05,58,0.40
2010,03,12,05,59,0.10
2010,03,12,06,00,1.80
2010,03,12,06,01,1.80
2010,03,12,06,02,0.00
2010,03,12,06,03,0.10
2010,03,12,06,04,0.20
2010,03,12,06,05,0.10
2010,03,12,06,06,0.00
2010,03,12,06,07,0.00
2010,03,12,06,08,0.00
2010,03,12,06,09,0.00
2010,03,12,06,10,0.00
2010,03,12,06,11,0.70
2010,03,12,06,12,1.80
2010,03,12,06,13,2.30
2010,03,12,06,14,2.00
2010,03,12,06,15,1.30
2010,03,12,06,16,2.70
2010,03,12,06,17,3.50
2010,03,12,06,18,3.60
2010,03,12,06,19,2.50
2010,03,12,06,20,3.60
2010,03,12,06,21,3.30
2010,03,12,06,22,2.50
2010,03,12,06,23,4.80
2010,03,12,06,24,2.20
2010,03,12,06,25,2.70
2010,03,12,06,26,0.90
2010,03,12,06,27,1.20
2010,03,12,06,28,0.00
2010,03,12,06,29,0.70
2010,03,12,06,30,0.00
2010,03,12,06,31,0.30
2010,03,12,06,32,0.50
2010,03,12,06,33,1.20
2010,03,12,06,34,1.40
2010,03,12,06,35,0.30
2010,03,12,06,36,1.10
2010,03,12,06,37,0.30
2010,03,12,06,38,0.40
2010,03,12,06,39,0.10
2010,03,12,06,40,0.70
2010,03,12,06,41,2.50
2010,03,12,06,42,0.30
2010,03,12,06,43,0.00
2010,03,12,06,44,0.00
2010,03,12,06,45,3.70
2010,03,12,06,46,3.40
2010,03,12,06,47,3.00
2010,03,12,06,48,0.70
2010,03,12,06,49,1.10
2010,03,12,06,50,1.70
2010,03,12,06,51,0.20
2010,03,12,06,52,0.00
2010,03,12,06,53,0.10
2010,03,12,06,54,0.00
2010,03,12,06,55,0.00
2010,03,12,06,56,0.60
2010,03,12,06,57,0.60
2010,03,12,06,58,1.00
2010,03,12,06,59,1.10
2010,03,12,07,00,0.10
2010,03,12,07,01,0.20
2010,03,12,07,02,3.60
2010,03,12,07,03,3.00
2010,03,12,07,04,2.10
2010,03,12,07,05,0.50
2010,03,12,07,06,0.30
2010,03,12,07,07,0.00
2010,03,12,07,08,0.00
2010,03,12,07,09,3.00
2010,03,12,07,10,1.90
2010,03,12,07,11,1.70
2010,03,12,07,12,0.40
2010,03,12,07,13,0.20
2010,03,12,07,14,0.90
2010,03,12,07,15,0.90
2010,03,12,07,16,3.10
2010,03,12,07,17,3.50
2010,03,12,07,18,2.10
2010,03,12,07,19,0.90
2010,03,12,07,20,2.50
2010,03,12,07,21,0.80
2010,03,12,07,22,0.10
2010,03,12,07,23,0.00
2010,03,12,07,24,1.30
2010,03,12,07,25,2.10
2010,03,12,07,26,0.10
2010,03,12,07,27,0.00
2010,03,12,07,28,0.00
2010,03,12,07,29,0.00
2010,03,12,07,30,0.00
2010,03,12,07,31,0.10
2010,03,12,07,32,2.30
2010,03,12,07,33,0.20
2010,03,12,07,34,1.30
2010,03,12,07,35,0.90
2010,03,12,07,36,1.00
2010,03,12,07,37,0.00
2010,03,12,07,38,0.30
2010,03,12,07,39,0.30
2010,03,12,07,40,0.60
2010,03,12,07,41,0.40
2010,03,12,07,42,0.10
2010,03,12,07,43,0.30
2010,03,12,07,44,0.10
2010,03,12,07,45,0.00
2010,03,12,07,46,0.00
2010,03,12,07,47,0.00
2010,03,12,07,48,0.00
2010,03,12,07,49,0.00
2010,03,12,07,50,0.00
2010,03,12,07,51,0.00
2010,03,12,07,52,0.00
2010,03,12,07,53,0.20
2010,03,12,07,54,0.70
2010,03,12,07,55,0.00
2010,03,12,07,56,0.30
2010,03,12,07,57,0.60
2010,03,12,07,58,0.00
2010,03,12,07,59,0.00
2010,03,12,08,00,0.00
2010,03,12,08,01,0.20
2010,03,12,08,02,0.00
2010,03,12,08,03,0.00
2010,03,12,08,04,0.00
2010,03,12,08,05,0.00
2010,03,12,08,06,0.00
2010,03,12,08,07,0.10
2010,03,12,08,08,0.00
2010,03,12,08,09,0.00
2010,03,12,08,10,0.00
2010,03,12,08,11,0.00
2010,03,12,08,12,0.00
2010,03,12,08,13,0.00
2010,03,12,08,14,0.00
2010,03,12,08,15,0.00
2010,03,12,08,16,0.00
2010,03,12,08,17,0.00
2010,03,12,08,18,0.00
2010,03,12,08,19,0.00
2010,03,12,08,20,0.00
2010,03,12,08,21,0.00
2010,03,12,08,22,0.00
2010,03,12,08,23,0.00
2010,03,12,08,24,0.00
2010,03,12,08,25,0.50
2010,03,12,08,26,0.20
2010,03,12,08,27,0.00
2010,03,12,08,28,0.00
2010,03,12,08,29,0.00
2010,03,12,08,30,0.00
2010,03,12,08,31,0.00
2010,03,12,08,32,0.00
2010,03,12,08,33,0.00
2010,03,12,08,34,0.00
2010,03,12,08,35,0.00
2010,03,12,08,36,0.00
2010,03,12,08,37,0.00
2010,03,12,08,38,0.00
2010,03,12,08,39,0.00
2010,03,12,08,40,0.00
2010,03,12,08,41,0.00
2010,03,12,08,42,0.00
2010,03,12,08,43,0.00
2010,03,12,08,44,0.00
2010,03,12,08,45,0.00
2010,03,12,08,46,0.00
2010,03,12,08,47,0.00
2010,03,12,08,48,0.00
2010,03,12,08,49,0.00
2010,03,12,08,50,0.00
2010,03,12,08,51,0.00
2010,03,12,08,52,0.00
2010,03,12,08,53,0.40
2010,03,12,08,54,0.50
2010,03,12,08,55,0.60
2010,03,12,08,56,0.00
2010,03,12,08,57,0.00
2010,03,12,08,58,0.00
2010,03,12,08,59,0.00
2010,03,12,09,00,0.00
2010,03,12,09,01,0.30
2010,03,12,09,02,1.90
2010,03,12,09,03,2.90
2010,03,12,09,04,3.00
2010,03,12,09,05,3.30
2010,03,12,09,06,2.60
2010,03,12,09,07,0.60
2010,03,12,09,08,0.00
2010,03,12,09,09,0.00
2010,03,12,09,10,0.10
2010,03,12,09,11,0.00
2010,03,12,09,12,0.00
2010,03,12,09,13,0.00
2010,03,12,09,14,0.00
2010,03,12,09,15,0.00
2010,03,12,09,16,0.00
2010,03,12,09,17,0.00
2010,03,12,09,18,0.30
2010,03,12,09,19,1.10
2010,03,12,09,20,0.00
2010,03,12,09,21,0.00
2010,03,12,09,22,0.00
2010,03,12,09,23,0.00
2010,03,12,09,24,0.00
2010,03,12,09,25,0.00
2010,03,12,09,26,0.00
2010,03,12,09,27,0.00
2010,03,12,09,28,0.00
2010,03,12,09,29,0.00
2010,03,12,09,30,0.00
2010,03,12,09,31,0.00
2010,03,12,09,32,0.00
2010,03,12,09,33,0.00
2010,03,12,09,34,0.00
2010,03,12,09,35,0.00
2010,03,12,09,36,0.00
2010,03,12,09,37,0.10
2010,03,12,09,38,0.20
2010,03,12,09,39,0.00
2010,03,12,09,40,0.00
2010,03,12,09,41,0.00
2010,03,12,09,42,0.00
2010,03,12,09,43,0.00
2010,03,12,09,44,0.00
2010,03,12,09,45,0.00
2010,03,12,09,46,1.40
2010,03,12,09,47,1.90
2010,03,12,09,48,1.70
2010,03,12,09,49,2.40
2010,03,12,09,50,1.20
2010,03,12,09,51,1.60
2010,03,12,09,52,1.10
2010,03,12,09,53,1.70
2010,03,12,09,54,3.00
2010,03,12,09,55,0.90
2010,03,12,09,56,2.10
2010,03,12,09,57,1.60
2010,03,12,09,58,0.10
2010,03,12,09,59,1.30
2010,03,12,10,00,2.10
2010,03,12,10,01,0.00
2010,03,12,10,02,0.10
2010,03,12,10,03,1.10
2010,03,12,10,04,1.80
2010,03,12,10,05,2.90
2010,03,12,10,06,3.80
2010,03,12,10,07,2.80
2010,03,12,10,08,4.90
2010,03,12,10,09,5.20
2010,03,12,10,10,6.70
2010,03,12,10,11,4.20
2010,03,12,10,12,6.30
2010,03,12,10,13,6.40
2010,03,12,10,14,4.60
2010,03,12,10,15,2.10
2010,03,12,10,16,2.50
2010,03,12,10,17,2.80
2010,03,12,10,18,4.20
2010,03,12,10,19,3.30
2010,03,12,10,20,3.50
2010,03,12,10,21,3.50
2010,03,12,10,22,5.30
2010,03,12,10,23,5.10
2010,03,12,10,24,4.80
2010,03,12,10,25,4.10
2010,03,12,10,26,2.50
2010,03,12,10,27,4.30
2010,03,12,10,28,1.40
2010,03,12,10,29,5.30
2010,03,12,10,30,5.40
2010,03,12,10,31,3.80
2010,03,12,10,32,4.20
2010,03,12,10,33,1.40
2010,03,12,10,34,0.00
2010,03,12,10,35,1.90
2010,03,12,10,36,4.20
2010,03,12,10,37,2.40
2010,03,12,10,38,2.50
2010,03,12,10,39,2.70
2010,03,12,10,40,3.50
2010,03,12,10,41,4.70
2010,03,12,10,42,1.90
2010,03,12,10,43,4.90
2010,03,12,10,44,6.10
2010,03,12,10,45,3.60
2010,03,12,10,46,2.30
2010,03,12,10,47,1.40
2010,03,12,10,48,1.20
2010,03,12,10,49,3.40
2010,03,12,10,50,5.90
2010,03,12,10,51,5.30
2010,03,12,10,52,5.80
2010,03,12,10,53,2.80
2010,03,12,10,54,6.20
2010,03,12,10,55,4.00
2010,03,12,10,56,6.00
2010,03,12,10,57,4.10
2010,03,12,10,58,2.20
2010,03,12,10,59,5.50
2010,03,12,11,00,3.70
2010,03,12,11,01,4.50
2010,03,12,11,02,3.40
2010,03,12,11,03,7.20
2010,03,12,11,04,5.50
2010,03,12,11,05,4.80
2010,03,12,11,06,4.70
2010,03,12,11,07,6.50
2010,03,12,11,08,8.60
2010,03,12,11,09,4.90
2010,03,12,11,10,3.40
2010,03,12,11,11,5.20
2010,03,12,11,12,7.60
2010,03,12,11,13,8.50
2010,03,12,11,14,7.50
2010,03,12,11,15,12.30
2010,03,12,11,16,11.20
2010,03,12,11,17,8.00
2010,03,12,11,18,15.50
2010,03,12,11,19,13.50
2010,03,12,11,20,11.70
2010,03,12,11,21,9.60
2010,03,12,11,22,13.70
2010,03,12,11,23,10.80
2010,03,12,11,24,12.10
2010,03,12,11,25,12.50
2010,03,12,11,26,7.40
2010,03,12,11,27,11.70
2010,03,12,11,28,17.40
2010,03,12,11,29,16.50
2010,03,12,11,30,19.70
2010,03,12,11,31,14.50
2010,03,12,11,32,15.50
2010,03,12,11,33,10.80
2010,03,12,11,34,11.80
2010,03,12,11,35,12.50
2010,03,12,11,36,12.50
2010,03,12,11,37,17.70
2010,03,12,11,38,13.00
2010,03,12,11,39,19.20
2010,03,12,11,40,22.10
2010,03,12,11,41,11.40
2010,03,12,11,42,15.40
2010,03,12,11,43,17.30
2010,03,12,11,44,17.30
2010,03,12,11,45,15.30
2010,03,12,11,46,16.60
2010,03,12,11,47,14.80
2010,03,12,11,48,11.30
2010,03,12,11,49,18.70
2010,03,12,11,50,17.60
2010,03,12,11,51,15.70
2010,03,12,11,52,20.80
2010,03,12,11,53,15.00
2010,03,12,11,54,12.60
2010,03,12,11,55,16.50
2010,03,12,11,56,10.20
2010,03,12,11,57,18.10
2010,03,12,11,58,14.90
2010,03,12,11,59,22.40
2010,03,12,12,00,14.30
2010,03,12,12,01,16.20
2010,03,12,12,02,15.20
2010,03,12,12,03,16.40
2010,03,12,12,04,17.40
2010,03,12,12,05,18.40
2010,03,12,12,06,16.30
2010,03,12,12,07,14.40
2010,03,12,12,08,13.70
2010,03,12,12,09,11.30
2010,03,12,12,10,14.30
2010,03,12,12,11,9.90
2010,03,12,12,12,11.70
2010,03,12,12,13,11.10
2010,03,12,12,14,13.10
2010,03,12,12,15,9.90
2010,03,12,12,16,13.60
2010,03,12,12,17,7.40
2010,03,12,12,18,14.40
2010,03,12,12,19,9.90
2010,03,12,12,20,8.60
2010,03,12,12,21,9.60
2010,03,12,12,22,11.60
2010,03,12,12,23,13.10
2010,03,12,12,24,9.70
2010,03,12,12,25,10.30
2010,03,12,12,26,10.40
2010,03,12,12,27,11.80
2010,03,12,12,28,9.10
2010,03,12,12,29,10.80
2010,03,12,12,30,13.00
2010,03,12,12,31,12.60
2010,03,12,12,32,13.10
2010,03,12,12,33,12.50
2010,03,12,12,34,10.50
2010,03,12,12,35,19.90
2010,03,12,12,36,19.70
2010,03,12,12,37,17.70
2010,03,12,12,38,14.10
2010,03,12,12,39,8.90
2010,03,12,12,40,10.80
2010,03,12,12,41,9.00
2010,03,12,12,42,16.50
2010,03,12,12,43,11.00
2010,03,12,12,44,14.90
2010,03,12,12,45,14.80
2010,03,12,12,46,11.40
2010,03,12,12,47,10.10
2010,03,12,12,48,6.90
2010,03,12,12,49,9.30
2010,03,12,12,50,11.60
2010,03,12,12,51,13.50
2010,03,12,12,52,8.80
2010,03,12,12,53,9.10
2010,03,12,12,54,13.20
2010,03,12,12,55,8.10
2010,03,12,12,56,11.20
2010,03,12,12,57,16.30
2010,03,12,12,58,13.00
2010,03,12,12,59,14.20
2010,03,12,13,00,20.10
2010,03,12,13,01,10.00
2010,03,12,13,02,18.20
2010,03,12,13,03,16.20
2010,03,12,13,04,16.00
2010,03,12,13,05,14.40
2010,03,12,13,06,16.90
2010,03,12,13,07,14.60
2010,03,12,13,08,19.10
2010,03,12,13,09,17.50
2010,03,12,13,10,21.50
2010,03,12,13,11,19.00
2010,03,12,13,12,11.40
2010,03,12,13,13,19.50
2010,03,12,13,14,14.00
2010,03,12,13,15,16.80
2010,03,12,13,16,21.10
2010,03,12,13,17,20.50
2010,03,12,13,18,12.80
2010,03,12,13,19,18.20
2010,03,12,13,20,14.00
2010,03,12,13,21,15.90
2010,03,12,13,22,17.50
2010,03,12,13,23,11.10
2010,03,12,13,24,18.00
2010,03,12,13,25,17.60
2010,03,12,13,26,16.60
2010,03,12,13,27,16.00
2010,03,12,13,28,12.60
2010,03,12,13,29,20.00
2010,03,12,13,30,16.00
2010,03,12,13,31,14.10
2010,03,12,13,32,20.50
2010,03,12,13,33,13.10
2010,03,12,13,34,16.90
2010,03,12,13,35,18.70
2010,03,12,13,36,21.50
2010,03,12,13,37,26.60
2010,03,12,13,38,16.50
2010,03,12,13,39,9.00
2010,03,12,13,40,13.40
2010,03,12,13,41,15.40
2010,03,12,13,42,16.10
2010,03,12,13,43,22.80
2010,03,12,13,44,21.00
2010,03,12,13,45,18.80
2010,03,12,13,46,18.40
2010,03,12,13,47,16.30
2010,03,12,13,48,21.60
2010,03,12,13,49,22.50
2010,03,12,13,50,22.50
2010,03,12,13,51,22.50
2010,03,12,13,52,21.80
2010,03,12,13,53,15.30
2010,03,12,13,54,20.60
2010,03,12,13,55,21.60
2010,03,12,13,56,25.80
2010,03,12,13,57,17.40
2010,03,12,13,58,21.90
2010,03,12,13,59,15.10
2010,03,12,14,00,18.00
2010,03,12,14,01,24.60
2010,03,12,14,02,21.50
2010,03,12,14,03,22.00
2010,03,12,14,04,12.40
2010,03,12,14,05,32.30
2010,03,12,14,06,31.40
2010,03,12,14,07,21.50
2010,03,12,14,08,18.40
2010,03,12,14,09,18.50
2010,03,12,14,10,19.00
2010,03,12,14,11,12.00
2010,03,12,14,12,18.40
2010,03,12,14,13,15.10
2010,03,12,14,14,24.50
2010,03,12,14,15,19.20
2010,03,12,14,16,14.10
2010,03,12,14,17,12.20
2010,03,12,14,18,14.10
2010,03,12,14,19,17.10
2010,03,12,14,20,9.50
2010,03,12,14,21,10.00
2010,03,12,14,22,20.70
2010,03,12,14,23,19.80
2010,03,12,14,24,22.10
2010,03,12,14,25,17.80
2010,03,12,14,26,19.60
2010,03,12,14,27,14.80
2010,03,12,14,28,13.20
2010,03,12,14,29,22.50
2010,03,12,14,30,17.20
2010,03,12,14,31,23.80
2010,03,12,14,32,20.00
2010,03,12,14,33,18.10
2010,03,12,14,34,23.10
2010,03,12,14,35,19.10
2010,03,12,14,36,26.10
2010,03,12,14,37,17.20
2010,03,12,14,38,19.40
2010,03,12,14,39,21.10
2010,03,12,14,40,20.90
2010,03,12,14,41,22.20
2010,03,12,14,42,17.50
2010,03,12,14,43,18.00
2010,03,12,14,44,21.60
2010,03,12,14,45,15.20
2010,03,12,14,46,18.50
2010,03,12,14,47,21.90
2010,03,12,14,48,21.20
2010,03,12,14,49,26.60
2010,03,12,14,50,13.80
2010,03,12,14,51,17.30
2010,03,12,14,52,19.90
2010,03,12,14,53,22.80
2010,03,12,14,54,23.20
2010,03,12,14,55,14.70
2010,03,12,14,56,17.30
2010,03,12,14,57,20.30
2010,03,12,14,58,15.30
2010,03,12,14,59,15.30
2010,03,12,15,00,12.30
2010,03,12,15,01,12.20
2010,03,12,15,02,16.90
2010,03,12,15,03,14.60
2010,03,12,15,04,11.00
2010,03,12,15,05,11.00
2010,03,12,15,06,14.10
2010,03,12,15,07,7.00
2010,03,12,15,08,8.10
2010,03,12,15,09,7.40
2010,03,12,15,10,13.80
2010,03,12,15,11,9.30
2010,03,12,15,12,10.80
2010,03,12,15,13,6.10
2010,03,12,15,14,5.80
2010,03,12,15,15,7.00
2010,03,12,15,16,8.50
2010,03,12,15,17,6.40
2010,03,12,15,18,5.40
2010,03,12,15,19,6.40
2010,03,12,15,20,6.10
2010,03,12,15,21,6.60
2010,03,12,15,22,6.40
2010,03,12,15,23,10.90
2010,03,12,15,24,8.30
2010,03,12,15,25,10.10
2010,03,12,15,26,12.90
2010,03,12,15,27,11.90
2010,03,12,15,28,17.60
2010,03,12,15,29,15.80
2010,03,12,15,30,7.50
2010,03,12,15,31,13.60
2010,03,12,15,32,15.60
2010,03,12,15,33,18.30
2010,03,12,15,34,11.50
2010,03,12,15,35,15.70
2010,03,12,15,36,9.30
2010,03,12,15,37,16.30
2010,03,12,15,38,13.80
2010,03,12,15,39,10.30
2010,03,12,15,40,12.60
2010,03,12,15,41,13.80
2010,03,12,15,42,18.60
2010,03,12,15,43,14.10
2010,03,12,15,44,10.30
2010,03,12,15,45,13.50
2010,03,12,15,46,6.00
2010,03,12,15,47,12.10
2010,03,12,15,48,13.60
2010,03,12,15,49,8.70
2010,03,12,15,50,13.40
2010,03,12,15,51,8.50
2010,03,12,15,52,6.20
2010,03,12,15,53,3.90
2010,03,12,15,54,12.30
2010,03,12,15,55,8.10
2010,03,12,15,56,4.70
2010,03,12,15,57,9.90
2010,03,12,15,58,7.30
2010,03,12,15,59,6.80
2010,03,12,16,00,5.80
2010,03,12,16,01,5.60
2010,03,12,16,02,8.90
2010,03,12,16,03,14.00
2010,03,12,16,04,15.80
2010,03,12,16,05,18.00
2010,03,12,16,06,10.20
2010,03,12,16,07,9.30
2010,03,12,16,08,6.40
2010,03,12,16,09,10.70
2010,03,12,16,10,16.60
2010,03,12,16,11,11.90
2010,03,12,16,12,12.40
2010,03,12,16,13,13.70
2010,03,12,16,14,16.30
2010,03,12,16,15,21.00
2010,03,12,16,16,19.40
2010,03,12,16,17,19.00
2010,03,12,16,18,22.00
2010,03,12,16,19,15.40
2010,03,12,16,20,16.80
2010,03,12,16,21,17.30
2010,03,12,16,22,9.30
2010,03,12,16,23,8.90
2010,03,12,16,24,16.60
2010,03,12,16,25,10.90
2010,03,12,16,26,11.20
2010,03,12,16,27,16.40
2010,03,12,16,28,21.20
2010,03,12,16,29,24.20
2010,03,12,16,30,17.10
2010,03,12,16,31,14.70
2010,03,12,16,32,9.20
2010,03,12,16,33,20.40
2010,03,12,16,34,10.70
2010,03,12,16,35,12.80
2010,03,12,16,36,16.90
2010,03,12,16,37,13.80
2010,03,12,16,38,11.60
2010,03,12,16,39,6.00
2010,03,12,16,40,7.70
2010,03,12,16,41,6.70
2010,03,12,16,42,7.70
2010,03,12,16,43,7.00
2010,03,12,16,44,7.40
2010,03,12,16,45,5.10
2010,03,12,16,46,5.80
2010,03,12,16,47,4.90
2010,03,12,16,48,5.40
2010,03,12,16,49,6.70
2010,03,12,16,50,3.10
2010,03,12,16,51,4.40
2010,03,12,16,52,1.20
2010,03,12,16,53,3.10
2010,03,12,16,54,3.60
2010,03,12,16,55,3.10
2010,03,12,16,56,4.30
2010,03,12,16,57,2.50
2010,03,12,16,58,6.90
2010,03,12,16,59,3.90
2010,03,12,17,00,4.80
2010,03,12,17,01,9.50
2010,03,12,17,02,8.30
2010,03,12,17,03,9.90
2010,03,12,17,04,8.60
2010,03,12,17,05,7.70
2010,03,12,17,06,9.20
2010,03,12,17,07,9.70
2010,03,12,17,08,10.60
2010,03,12,17,09,9.00
2010,03,12,17,10,8.70
2010,03,12,17,11,8.10
2010,03,12,17,12,9.90
2010,03,12,17,13,8.40
2010,03,12,17,14,9.50
2010,03,12,17,15,9.30
2010,03,12,17,16,6.60
2010,03,12,17,17,5.80
2010,03,12,17,18,6.60
2010,03,12,17,19,5.60
2010,03,12,17,20,3.40
2010,03,12,17,21,6.80
2010,03,12,17,22,6.60
2010,03,12,17,23,11.70
2010,03,12,17,24,8.10
2010,03,12,17,25,8.90
2010,03,12,17,26,10.10
2010,03,12,17,27,14.10
2010,03,12,17,28,5.90
2010,03,12,17,29,9.30
2010,03,12,17,30,7.70
2010,03,12,17,31,9.70
2010,03,12,17,32,7.20
2010,03,12,17,33,13.30
2010,03,12,17,34,8.00
2010,03,12,17,35,6.40
2010,03,12,17,36,10.10
2010,03,12,17,37,9.20
2010,03,12,17,38,4.80
2010,03,12,17,39,7.50
2010,03,12,17,40,5.10
2010,03,12,17,41,8.00
2010,03,12,17,42,6.60
2010,03,12,17,43,7.50
2010,03,12,17,44,10.30
2010,03,12,17,45,4.30
2010,03,12,17,46,3.40
2010,03,12,17,47,7.00
2010,03,12,17,48,2.30
2010,03,12,17,49,3.60
2010,03,12,17,50,3.40
2010,03,12,17,51,5.90
2010,03,12,17,52,3.00
2010,03,12,17,53,2.40
2010,03,12,17,54,0.90